EW6472 Weather Reports


Display with metric or nautical units.
time (UTC)temp
F
wind
direction
speed
MPH
gust
MPH
rain 1hr
in
rain 24hr
in
rain mn
in
humidity
%
barometer
mb
20260508011501 71 248 4.0 11.0 0.00 0.00 0.00 63 1011.2
20260508010108 72 183 4.0 10.0 0.00 0.00 0.00 62 1011.2
20260508004605 72 235 3.0 10.0 0.00 0.00 0.00 60 1011.1
20260508003112 73 250 3.0 11.0 0.00 0.00 0.00 60 1011.2
20260508001559 74 250 4.0 11.0 0.00 0.00 0.00 58 1011.2
20260508000057 74 239 5.0 12.0 0.00 0.00 0.00 58 1011.1
20260507234558 74 230 3.0 9.0 0.00 0.00 0.00 58 1011.2
20260507233058 75 250 4.0 12.0 0.00 0.00 0.00 58 1011.2
20260507231608 75 245 3.0 12.0 0.00 0.00 0.00 57 1011.2
20260507230056 76 198 4.0 14.0 0.00 0.00 0.00 54 1011.2
20260507224604 76 169 3.0 9.0 0.00 0.00 0.00 55 1011.4
20260507223053 76 247 7.0 12.0 0.00 0.00 0.00 54 1011.4
20260507221551 76 156 3.0 13.0 0.00 0.00 0.00 56 1011.4
20260507220048 76 248 4.0 13.0 0.00 0.00 0.00 54 1011.8
20260507214553 76 233 5.0 10.0 0.00 0.00 0.00 53 1011.8
20260507213102 76 243 6.0 12.0 0.00 0.00 0.00 53 1012.1
20260507211544 76 197 4.0 11.0 0.00 0.00 0.00 54 1012.1
20260507210048 77 225 4.0 10.0 0.00 0.00 0.00 53 1012.2
20260507204548 78 234 3.0 10.0 0.00 0.00 0.00 52 1012.3
20260507203038 77 210 3.0 12.0 0.00 0.00 0.00 55 1012.3
20260507201539 77 188 2.0 8.0 0.00 0.00 0.00 55 1012.4
20260507200037 76 225 5.0 11.0 0.00 0.00 0.00 55 1012.7
20260507194530 77 203 2.0 9.0 0.00 0.00 0.00 54 1012.7
20260507193028 76 250 3.0 8.0 0.00 0.00 0.00 54 1012.8
20260507191523 75 253 1.0 7.0 0.00 0.00 0.00 55 1013.0
20260507190034 74 240 3.0 8.0 0.00 0.00 0.00 54 1013.3
20260507184526 74 248 3.0 8.0 0.00 0.00 0.00 56 1013.6
20260507183019 72 200 0.0 6.0 0.00 0.00 0.00 59 1013.6
20260507181514 72 225 2.0 5.0 0.00 0.00 0.00 59 1013.7
20260507180013 71 253 3.0 6.0 0.00 0.00 0.00 61 1013.9
20260507174510 70 254 2.0 6.0 0.00 0.00 0.00 63 1014.0
20260507173006 70 251 1.0 5.0 0.00 0.00 0.00 65 1014.0
20260507171506 70 243 1.0 5.0 0.00 0.00 0.00 64 1014.0
20260507170004 69 186 0.0 4.0 0.00 0.00 0.00 66 1014.0
20260507164558 67 255 0.0 4.0 0.00 0.00 0.00 70 1014.2
20260507163055 66 127 0.0 3.0 0.00 0.00 0.00 72 1014.3
20260507161556 64 199 1.0 6.0 0.00 0.00 0.00 73 1014.4
20260507160059 64 215 1.0 3.0 0.00 0.00 0.00 74 1014.4
20260507154549 63 324 0.0 3.0 0.00 0.00 0.00 77 1014.5
20260507153054 63 293 1.0 4.0 0.00 0.00 0.00 75 1014.6
20260507151548 62 231 0.0 3.0 0.00 0.00 0.00 77 1014.5
20260507150043 61 182 0.0 3.0 0.00 0.00 0.00 79 1014.6
20260507144545 60 194 0.0 4.0 0.00 0.00 0.00 80 1014.6
20260507143038 60 247 0.0 2.0 0.00 0.00 0.00 80 1014.5
20260507141536 59 84 0.0 1.0 0.00 0.00 0.00 79 1014.3
20260507140048 58 84 0.0 1.0 0.00 0.00 0.00 83 1014.1
20260507134534 55 84 0.0 0.0 0.00 0.00 0.00 87 1014.0
20260507133034 54 84 0.0 1.0 0.00 0.00 0.00 89 1013.9
20260507131535 54 84 0.0 0.0 0.00 0.00 0.00 89 1013.7
20260507130031 54 84 0.0 0.0 0.00 0.00 0.00 88 1013.5
20260507124529 54 84 0.0 0.0 0.00 0.00 0.00 87 1013.5
20260507123033 54 105 0.0 0.0 0.00 0.00 0.00 87 1013.5
20260507121536 54 112 0.0 2.0 0.00 0.00 0.00 87 1013.6
20260507120024 54 112 0.0 1.0 0.00 0.00 0.00 87 1013.7
20260507114522 54 112 0.0 0.0 0.00 0.00 0.00 86 1013.7
20260507113030 55 112 0.0 2.0 0.00 0.00 0.00 86 1013.6
20260507111522 55 112 0.0 0.0 0.00 0.00 0.00 84 1013.7
20260507110017 56 89 0.0 2.0 0.00 0.00 0.00 84 1013.8
20260507104514 55 79 1.0 3.0 0.00 0.00 0.00 85 1013.8
20260507103015 55 92 0.0 0.0 0.00 0.00 0.00 84 1014.0
20260507101509 56 92 0.0 0.0 0.00 0.00 0.00 83 1014.0
20260507100011 57 77 0.0 2.0 0.00 0.00 0.00 82 1014.1
20260507094505 56 77 0.0 2.0 0.00 0.00 0.00 83 1014.1
20260507093005 56 91 0.0 1.0 0.00 0.00 0.00 82 1014.3
20260507091609 56 91 0.0 1.0 0.00 0.00 0.00 82 1014.6
20260507090058 57 91 0.0 2.0 0.00 0.00 0.00 81 1014.6
20260507084558 57 108 0.0 1.0 0.00 0.00 0.00 83 1014.8
20260507083059 57 108 0.0 1.0 0.00 0.00 0.00 82 1014.9
20260507081553 57 108 0.0 0.0 0.00 0.00 0.00 82 1014.9
20260507080114 57 108 0.0 1.0 0.00 0.00 0.00 82 1015.0
20260507074556 58 238 0.0 0.0 0.00 0.00 0.00 81 1015.0
20260507073057 58 238 0.0 0.0 0.00 0.00 0.00 82 1015.0
20260507071559 58 238 0.0 0.0 0.00 0.00 0.00 80 1015.0
20260507070043 59 238 0.0 0.0 0.00 0.00 0.00 79 1015.0
20260507064546 59 238 0.0 0.0 0.00 0.00 0.00 80 1015.2
20260507063042 58 238 0.0 0.0 0.00 0.00 0.00 80 1015.3
20260507061542 59 238 0.0 0.0 0.00 0.00 0.00 78 1015.2
20260507060046 59 238 0.0 0.0 0.00 0.00 0.00 76 1015.2
20260507054549 60 238 0.0 0.0 0.00 0.00 0.00 76 1015.3
20260507053045 61 238 0.0 0.0 0.00 0.00 0.00 75 1015.2
20260507051540 61 238 0.0 1.0 0.00 0.00 0.00 74 1015.1
20260507050039 62 240 0.0 1.0 0.00 0.00 0.00 73 1015.0
20260507044538 62 233 0.0 1.0 0.00 0.00 0.00 71 1015.0
20260507043039 63 239 0.0 2.0 0.00 0.00 0.00 70 1015.0
20260507041537 63 260 0.0 1.0 0.00 0.00 0.00 69 1014.9
20260507040043 64 275 0.0 3.0 0.00 0.00 0.00 67 1014.8
20260507034535 65 248 0.0 4.0 0.00 0.00 0.00 64 1014.6
20260507033038 65 285 0.0 3.0 0.00 0.00 0.00 63 1014.5
20260507031535 65 248 0.0 3.0 0.00 0.00 0.00 65 1014.3
20260507030035 66 212 2.0 5.0 0.00 0.00 0.00 65 1014.1
20260507024535 67 150 0.0 5.0 0.00 0.00 0.00 62 1014.0
20260507023033 68 148 1.0 6.0 0.00 0.00 0.00 60 1013.8
20260507021532 69 187 2.0 7.0 0.00 0.00 0.00 59 1013.7
20260507020034 69 234 3.0 7.0 0.00 0.00 0.00 58 1013.5
20260507014531 70 219 3.0 9.0 0.00 0.00 0.00 58 1013.5
20260507013036 70 217 5.0 9.0 0.00 0.00 0.00 58 1013.4